Time,TemperatureF,DewpointF,PressureIn,WindDirection,WindDirectionDegrees,WindSpeedMPH,WindSpeedGustMPH,Humidity,HourlyPrecipIn,Conditions,Clouds,dailyrainin,SolarRadiationWatts/m^2,SoftwareType,DateUTC
2013-07-04 00:00:00,61.0,57.0,-100.00,ESE,112,0.0,-999.0,86,-99.99,,,-99.99,0.000000,,2013-07-04 05:00:00,
2013-07-04 00:43:00,61.0,57.0,-100.00,ESE,112,0.0,-999.0,86,-99.99,,,-99.99,0.000000,,2013-07-04 05:43:00,
2013-07-04 00:52:00,61.0,57.0,-100.00,ESE,112,0.0,-999.0,86,-99.99,,,-99.99,0.000000,,2013-07-04 05:52:00,
2013-07-04 01:00:00,62.0,55.0,-100.00,SW,225,0.0,-999.0,76,-99.99,,,-99.99,0.000000,,2013-07-04 06:00:00,
2013-07-04 01:43:00,62.0,55.0,-100.00,SW,225,0.0,-999.0,76,-99.99,,,-99.99,0.000000,,2013-07-04 06:43:00,
2013-07-04 01:53:00,62.0,55.0,-100.00,SW,225,0.0,-999.0,76,-99.99,,,-99.99,0.000000,,2013-07-04 06:53:00,
2013-07-04 02:00:00,62.0,54.0,-100.00,West,270,2.0,-999.0,76,-99.99,,,-99.99,0.000000,,2013-07-04 07:00:00,
2013-07-04 02:43:00,62.0,54.0,-100.00,West,270,2.0,-999.0,76,-99.99,,,-99.99,0.000000,,2013-07-04 07:43:00,
2013-07-04 02:52:00,62.0,54.0,-100.00,West,270,2.0,-999.0,76,-99.99,,,-99.99,0.000000,,2013-07-04 07:52:00,
2013-07-04 03:00:00,62.0,55.0,-100.00,West,270,3.0,-999.0,77,-99.99,,,-99.99,0.000000,,2013-07-04 08:00:00,
2013-07-04 03:43:00,62.0,55.0,-100.00,West,270,3.0,-999.0,77,-99.99,,,-99.99,0.000000,,2013-07-04 08:43:00,
2013-07-04 03:53:00,62.0,55.0,-100.00,West,270,3.0,-999.0,77,-99.99,,,-99.99,0.000000,,2013-07-04 08:53:00,
2013-07-04 05:00:00,62.0,58.0,-100.00,SSE,157,1.0,-999.0,85,-99.99,,,-99.99,0.000000,,2013-07-04 10:00:00,
2013-07-04 05:43:00,62.0,58.0,-100.00,SSE,157,1.0,-999.0,85,-99.99,,,-99.99,0.000000,,2013-07-04 10:43:00,
2013-07-04 05:53:00,62.0,58.0,-100.00,SSE,157,1.0,-999.0,85,-99.99,,,-99.99,0.000000,,2013-07-04 10:53:00,
2013-07-04 06:00:00,62.0,59.0,-100.00,SSW,202,1.0,-999.0,89,-99.99,,,-99.99,10.440000,,2013-07-04 11:00:00,
2013-07-04 06:43:00,62.0,59.0,-100.00,SSW,202,1.0,-999.0,89,-99.99,,,-99.99,10.440000,,2013-07-04 11:43:00,
2013-07-04 06:53:00,62.0,59.0,-100.00,SSW,202,1.0,-999.0,89,-99.99,,,-99.99,10.440000,,2013-07-04 11:53:00,
2013-07-04 07:00:00,63.0,60.0,-100.00,WSW,247,4.0,-999.0,89,-99.99,,,-99.99,47.560001,,2013-07-04 12:00:00,
2013-07-04 07:43:00,63.0,60.0,-100.00,WSW,247,4.0,-999.0,89,-99.99,,,-99.99,47.560001,,2013-07-04 12:43:00,
2013-07-04 07:52:00,63.0,60.0,-100.00,WSW,247,4.0,-999.0,89,-99.99,,,-99.99,47.560001,,2013-07-04 12:52:00,
2013-07-04 08:00:00,65.0,61.0,-100.00,SW,225,4.0,-999.0,87,-99.99,,,-99.99,92.800003,,2013-07-04 13:00:00,
2013-07-04 08:43:00,65.0,61.0,-100.00,SW,225,4.0,-999.0,87,-99.99,,,-99.99,92.800003,,2013-07-04 13:43:00,
2013-07-04 08:53:00,65.0,61.0,-100.00,SW,225,4.0,-999.0,87,-99.99,,,-99.99,92.800003,,2013-07-04 13:53:00,
2013-07-04 09:00:00,67.0,62.0,-100.00,SW,225,5.0,-999.0,84,-99.99,,,-99.99,262.160004,,2013-07-04 14:00:00,
2013-07-04 09:43:00,67.0,62.0,-100.00,SW,225,5.0,-999.0,84,-99.99,,,-99.99,262.160004,,2013-07-04 14:43:00,
2013-07-04 09:53:00,67.0,62.0,-100.00,SW,225,5.0,-999.0,84,-99.99,,,-99.99,262.160004,,2013-07-04 14:53:00,
2013-07-04 10:00:00,71.0,62.0,-100.00,SSW,202,6.0,-999.0,75,-99.99,,,-99.99,559.119995,,2013-07-04 15:00:00,
2013-07-04 10:43:00,71.0,62.0,-100.00,SSW,202,6.0,-999.0,75,-99.99,,,-99.99,559.119995,,2013-07-04 15:43:00,
2013-07-04 10:53:00,71.0,62.0,-100.00,SSW,202,6.0,-999.0,75,-99.99,,,-99.99,559.119995,,2013-07-04 15:53:00,
2013-07-04 11:00:00,72.0,63.0,-100.00,South,180,4.0,-999.0,73,-99.99,,,-99.99,602.039978,,2013-07-04 16:00:00,
2013-07-04 11:43:00,72.0,63.0,-100.00,South,180,4.0,-999.0,73,-99.99,,,-99.99,602.039978,,2013-07-04 16:43:00,
2013-07-04 11:52:00,72.0,63.0,-100.00,South,180,4.0,-999.0,73,-99.99,,,-99.99,602.039978,,2013-07-04 16:52:00,
2013-07-04 12:00:00,73.0,63.0,-100.00,South,180,5.0,-999.0,70,-99.99,,,-99.99,622.919983,,2013-07-04 17:00:00,
2013-07-04 12:43:00,73.0,63.0,-100.00,South,180,5.0,-999.0,70,-99.99,,,-99.99,622.919983,,2013-07-04 17:43:00,
2013-07-04 12:53:00,73.0,63.0,-100.00,South,180,5.0,-999.0,70,-99.99,,,-99.99,622.919983,,2013-07-04 17:53:00,
2013-07-04 14:00:00,74.0,62.0,-100.00,South,180,8.0,-999.0,67,-99.99,,,-99.99,822.440002,,2013-07-04 19:00:00,
2013-07-04 14:43:00,74.0,62.0,-100.00,South,180,8.0,-999.0,67,-99.99,,,-99.99,822.440002,,2013-07-04 19:43:00,
2013-07-04 14:53:00,74.0,62.0,-100.00,South,180,8.0,-999.0,67,-99.99,,,-99.99,822.440002,,2013-07-04 19:53:00,
2013-07-04 15:00:00,73.0,61.0,-100.00,South,180,8.0,-999.0,65,-99.99,,,-99.99,828.239990,,2013-07-04 20:00:00,
2013-07-04 15:42:00,73.0,61.0,-100.00,South,180,8.0,-999.0,65,-99.99,,,-99.99,828.239990,,2013-07-04 20:42:00,
2013-07-04 15:53:00,73.0,61.0,-100.00,South,180,8.0,-999.0,65,-99.99,,,-99.99,828.239990,,2013-07-04 20:53:00,
2013-07-04 16:00:00,73.0,60.0,-100.00,South,180,10.0,-999.0,62,-99.99,,,-99.99,731.960022,,2013-07-04 21:00:00,
2013-07-04 16:43:00,73.0,60.0,-100.00,South,180,10.0,-999.0,62,-99.99,,,-99.99,731.960022,,2013-07-04 21:43:00,
2013-07-04 16:53:00,73.0,60.0,-100.00,South,180,10.0,-999.0,62,-99.99,,,-99.99,731.960022,,2013-07-04 21:53:00,
2013-07-04 17:00:00,73.0,58.0,-100.00,South,180,10.0,-999.0,59,-99.99,,,-99.99,602.039978,,2013-07-04 22:00:00,
2013-07-04 17:43:00,73.0,58.0,-100.00,South,180,10.0,-999.0,59,-99.99,,,-99.99,602.039978,,2013-07-04 22:43:00,
2013-07-04 17:52:00,73.0,58.0,-100.00,South,180,10.0,-999.0,59,-99.99,,,-99.99,602.039978,,2013-07-04 22:52:00,
2013-07-04 18:00:00,73.0,56.0,-100.00,SSW,202,12.0,-999.0,54,-99.99,,,-99.99,444.279999,,2013-07-04 23:00:00,
2013-07-04 18:33:00,73.0,56.0,-100.00,SSW,202,12.0,-999.0,54,-99.99,,,-99.99,444.279999,,2013-07-04 23:33:00,
2013-07-04 18:43:00,73.0,56.0,-100.00,SSW,202,12.0,-999.0,54,-99.99,,,-99.99,444.279999,,2013-07-04 23:43:00,
2013-07-04 18:52:00,73.0,56.0,-100.00,SSW,202,12.0,-999.0,54,-99.99,,,-99.99,444.279999,,2013-07-04 23:52:00,
2013-07-04 20:00:00,70.0,56.0,-100.00,South,180,6.0,-999.0,59,-99.99,,,-99.99,117.160004,,2013-07-05 01:00:00,
2013-07-04 20:42:00,70.0,56.0,-100.00,South,180,6.0,-999.0,59,-99.99,,,-99.99,117.160004,,2013-07-05 01:42:00,
2013-07-04 20:52:00,70.0,56.0,-100.00,South,180,6.0,-999.0,59,-99.99,,,-99.99,117.160004,,2013-07-05 01:52:00,
2013-07-04 21:00:00,67.0,56.0,-100.00,SSW,202,5.0,-999.0,67,-99.99,,,-99.99,18.559999,,2013-07-05 02:00:00,
2013-07-04 21:43:00,67.0,56.0,-100.00,SSW,202,5.0,-999.0,67,-99.99,,,-99.99,18.559999,,2013-07-05 02:43:00,
2013-07-04 21:52:00,67.0,56.0,-100.00,SSW,202,5.0,-999.0,67,-99.99,,,-99.99,18.559999,,2013-07-05 02:52:00,
2013-07-04 22:00:00,65.0,55.0,-100.00,South,180,4.0,-999.0,70,-99.99,,,-99.99,0.000000,,2013-07-05 03:00:00,
2013-07-04 22:33:00,65.0,55.0,-100.00,South,180,4.0,-999.0,70,-99.99,,,-99.99,0.000000,,2013-07-05 03:33:00,
2013-07-04 22:42:00,65.0,55.0,-100.00,South,180,4.0,-999.0,70,-99.99,,,-99.99,0.000000,,2013-07-05 03:42:00,
2013-07-04 22:52:00,65.0,55.0,-100.00,South,180,4.0,-999.0,70,-99.99,,,-99.99,0.000000,,2013-07-05 03:52:00,
2013-07-04 23:00:00,66.0,56.0,-100.00,SSW,202,5.0,-999.0,71,-99.99,,,-99.99,0.000000,,2013-07-05 04:00:00,
2013-07-04 23:43:00,66.0,56.0,-100.00,SSW,202,5.0,-999.0,71,-99.99,,,-99.99,0.000000,,2013-07-05 04:43:00,
2013-07-04 23:53:00,66.0,56.0,-100.00,SSW,202,5.0,-999.0,71,-99.99,,,-99.99,0.000000,,2013-07-05 04:53:00,